This is the latest recevied weather packets stored in our database for station/object W1ERB-13. If no packets are shown the sender has not sent any weather packets the latest 10 day(s).
| Time | Temp. | Humidity | Pressure | Rain* | Wind** | Luminosity | Snow |
|---|---|---|---|---|---|---|---|
| 1777620658 | 6.67° C | 78% | 1009.8 hPa | 0 mm | - | 0 W/m² | - |
| 1777620349 | 6.11° C | 78% | 1009.6 hPa | 0 mm | - | 0 W/m² | - |
| 1777620046 | 6.11° C | 82% | 1009.9 hPa | 0 mm | - | 0 W/m² | - |
| 1777619742 | 6.11° C | 84% | 1009.7 hPa | 0 mm | - | 0 W/m² | - |
| 1777619436 | 6.11° C | 84% | 1009.6 hPa | 0 mm | - | 0 W/m² | - |
| 1777619132 | 6.11° C | 84% | 1009.7 hPa | 0 mm | - | 0 W/m² | - |
| 1777618827 | 6.11° C | 83% | 1009.7 hPa | 0 mm | - | 0 W/m² | - |
| 1777618521 | 5.56° C | 85% | 1009.6 hPa | 0 mm | - | 0 W/m² | - |
| 1777618218 | 5.56° C | 83% | 1009.6 hPa | 0 mm | - | 0 W/m² | - |
| 1777617915 | 5.56° C | 85% | 1009.7 hPa | 0 mm | - | 0 W/m² | - |
| 1777617610 | 5.56° C | 85% | 1009.7 hPa | 0 mm | - | 0 W/m² | - |
| 1777617307 | 5.56° C | 86% | 1009.4 hPa | 0 mm | - | 0 W/m² | - |
| 1777617005 | 5.56° C | 84% | 1009.5 hPa | 0 mm | - | 0 W/m² | - |
| 1777616699 | 6.11° C | 83% | 1009.4 hPa | 0 mm | - | 0 W/m² | - |
| 1777616394 | 6.11° C | 82% | 1009.5 hPa | 0 mm | - | 0 W/m² | - |
| 1777616091 | 6.11° C | 81% | 1009.5 hPa | 0 mm | - | 0 W/m² | - |
| 1777615789 | 6.11° C | 80% | 1009.7 hPa | 0 mm | - | 0 W/m² | - |
| 1777615485 | 6.11° C | 81% | 1009.5 hPa | 0 mm | - | 0 W/m² | - |
| 1777615185 | 6.67° C | 81% | 1009.4 hPa | 0 mm | - | 0 W/m² | - |
| 1777614880 | 6.67° C | 79% | 1009.7 hPa | 0 mm | - | 0 W/m² | - |
| 1777614577 | 7.22° C | 78% | 1009.5 hPa | 0 mm | - | 0 W/m² | - |
| 1777614272 | 7.22° C | 76% | 1009.4 hPa | 0 mm | - | 0 W/m² | - |
| 1777613967 | 7.22° C | 75% | 1009.5 hPa | 0 mm | - | 0 W/m² | - |
| 1777613664 | 7.22° C | 76% | 1009.5 hPa | 0 mm | - | 0 W/m² | - |
| 1777613361 | 7.78° C | 74% | 1009.5 hPa | 0 mm | - | 0 W/m² | - |
* Rain latest hour (hover to see other rain measurements)
** Current wind speed in m/s (hover to see current wind gust speed)